This is the latest recevied weather packets stored in our database for station/object KC9MWQ-13. If no packets are shown the sender has not sent any weather packets the latest 1 day(s).
| Time | Temp. | Humidity | Pressure | Rain* | Wind** | Luminosity | Snow |
|---|---|---|---|---|---|---|---|
| 1778033899 | 8.33° C | 99% | 1010.2 hPa | 0 mm | 0 m/s | 0 W/m² | - |
| 1778033595 | 8.33° C | 99% | 1010 hPa | 0 mm | 0 m/s | 0 W/m² | - |
| 1778033291 | 8.33° C | 99% | 1009.7 hPa | 1.78 mm | 0.89 m/s, 339° | 0 W/m² | - |
| 1778032989 | 8.33° C | 99% | 1009.9 hPa | 1.78 mm | 0.45 m/s, 294° | 0 W/m² | - |
| 1778032687 | 8.33° C | 99% | 1009.9 hPa | 0 mm | 0 m/s | 0 W/m² | - |
| 1778032384 | 8.33° C | 99% | 1009.9 hPa | 1.27 mm | 0.45 m/s, 321° | 0 W/m² | - |
| 1778032081 | 8.33° C | 99% | 1010 hPa | 1.27 mm | 0.45 m/s, 330° | 0 W/m² | - |
| 1778031778 | 8.33° C | 99% | 1010 hPa | 1.78 mm | 0 m/s | 0 W/m² | - |
| 1778031474 | 8.33° C | 99% | 1009.9 hPa | 1.78 mm | 0.45 m/s, 293° | 0 W/m² | - |
| 1778031172 | 8.33° C | 99% | 1009.9 hPa | 0 mm | 0 m/s | 0 W/m² | - |
| 1778030868 | 8.33° C | 99% | 1010.1 hPa | 0 mm | 0 m/s | 0 W/m² | - |
| 1778030565 | 8.33° C | 99% | 1010.3 hPa | 0 mm | 0 m/s | 0 W/m² | - |
| 1778030263 | 8.33° C | 99% | 1010 hPa | 0 mm | 0 m/s | 0 W/m² | - |
| 1778029959 | 8.33° C | 99% | 1010.1 hPa | 0 mm | 0 m/s | 0 W/m² | - |
| 1778029657 | 8.33° C | 99% | 1010 hPa | 1.27 mm | 0 m/s | 0 W/m² | - |
| 1778029354 | 8.33° C | 99% | 1009.8 hPa | 1.27 mm | 0 m/s | 0 W/m² | - |
| 1778029051 | 8.33° C | 99% | 1009.8 hPa | 1.78 mm | 0 m/s | 0 W/m² | - |
| 1778028748 | 8.33° C | 99% | 1009.8 hPa | 1.78 mm | 0 m/s | 0 W/m² | - |
| 1778028444 | 8.33° C | 99% | 1009.6 hPa | 0 mm | 0 m/s | 0 W/m² | - |
| 1778028142 | 8.33° C | 99% | 1009.8 hPa | 1.27 mm | 0.45 m/s, 302° | 0 W/m² | - |
| 1778027837 | 8.33° C | 99% | 1009.8 hPa | 1.27 mm | 0 m/s | 0 W/m² | - |
| 1778027534 | 8.33° C | 99% | 1009.8 hPa | 0 mm | 0 m/s | 1 W/m² | - |
| 1778027230 | 8.33° C | 99% | 1009.7 hPa | 1.78 mm | 0 m/s | 0 W/m² | - |
| 1778026926 | 8.33° C | 99% | 1009.4 hPa | 1.78 mm | 0.45 m/s, 252° | 2 W/m² | - |
| 1778026622 | 8.33° C | 99% | 1009.5 hPa | 1.78 mm | 0.45 m/s, 251° | 2 W/m² | - |
* Rain latest hour (hover to see other rain measurements)
** Current wind speed in m/s (hover to see current wind gust speed)